Simultaneous Nadir Overpasses (SNOs) Predictions

Prediction of SNOs between AQUA and NOAA-19 Satellite Orbit:

Table of predicted SNOs for the next 14.0 days since TLE Epoch: 1/18/2014
Index Date (AQUA) Time (AQUA) Lat,Lon (AQUA) SZA (AQUA ) Date (NOAA-19) Time (NOAA-19) Lat,Lon (NOAA-19) SZA (NOAA-19 ) Distance(km) Time Diff (sec)
1 01/20/2014 11:54:08 71.18, 0.48 91.19 01/20/2014 11:54:05 71.18, 0.51 91.19 1.37 3
2 01/22/2014 16:38:36 71.63, -71.33 91.16 01/22/2014 16:38:18 71.62, -71.29 91.16 1.41 18
3 01/22/2014 17:27:22 -69.48, 99.54 91.06 01/22/2014 17:28:32 -69.48, 99.53 91.06 0.47 70
4 01/24/2014 21:23:11 72.46,-143.89 91.52 01/24/2014 21:22:39 72.47,-143.96 91.54 2.75 32
5 01/24/2014 22:11:48 -69.84, 27.97 91.21 01/24/2014 22:12:43 -69.84, 27.99 91.22 1.05 55
6 01/27/2014 02:07:32 72.57, 144.84 91.08 01/27/2014 02:06:45 72.57, 144.84 91.09 0.01 47
7 01/27/2014 02:56:21 -70.60, -44.21 90.98 01/27/2014 02:57:02 -70.61, -44.23 90.97 1.10 41
8 01/29/2014 06:52:00 73.07, 72.80 91.04 01/29/2014 06:50:59 73.07, 72.76 91.06 1.45 61
9 01/29/2014 07:40:50 -71.16,-116.15 90.98 01/29/2014 07:41:17 -71.17,-116.19 90.97 1.57 27
10 01/31/2014 11:37:18 76.11, -5.89 93.80 01/31/2014 11:36:04 75.99, -6.36 93.73 18.80 74




NCC Satellite Simultaneous Nadir Overpasses (SNOs) Prediction Service
